This is the latest recevied weather packets stored in our database for station/object WB8ZGM-13. If no packets are shown the sender has not sent any weather packets the latest 10 day(s).
| Time | Temp. | Humidity | Pressure | Rain* | Wind** | Luminosity | Snow |
|---|---|---|---|---|---|---|---|
| 1777547729 | 9.44° C | 92% | 997.6 hPa | 0 mm | - | - | - |
| 1777546799 | 8.89° C | 92% | 997.3 hPa | 0 mm | - | - | - |
| 1777545869 | 9.44° C | 92% | 997.3 hPa | 0 mm | - | - | - |
| 1777544939 | 9.44° C | 90% | 997.2 hPa | 0 mm | - | - | - |
| 1777544009 | 10° C | 91% | 997.4 hPa | 0 mm | - | - | - |
| 1777543079 | 10.56° C | 89% | 997.4 hPa | 0 mm | - | - | - |
| 1777542149 | 10.56° C | 89% | 997.2 hPa | 0 mm | - | - | - |
| 1777541249 | 10.56° C | 89% | 996.8 hPa | 0 mm | - | - | - |
| 1777540319 | 10.56° C | 89% | 996.8 hPa | 0 mm | - | - | - |
| 1777539389 | 11.11° C | 89% | 996.7 hPa | 0 mm | - | - | - |
| 1777538459 | 11.67° C | 87% | 996.6 hPa | 0 mm | - | - | - |
| 1777537559 | 12.22° C | 84% | 996.8 hPa | 0 mm | - | - | - |
| 1777536629 | 12.78° C | 82% | 996.5 hPa | 0 mm | - | - | - |
| 1777535698 | 12.78° C | 82% | 996.5 hPa | 0 mm | - | - | - |
| 1777534768 | 13.33° C | 82% | 996.4 hPa | 0 mm | - | - | - |
| 1777533838 | 13.89° C | 82% | 996.3 hPa | 0 mm | - | - | - |
| 1777532938 | 13.89° C | 82% | 996 hPa | 0 mm | - | - | - |
| 1777532008 | 14.44° C | 83% | 996 hPa | 0 mm | - | - | - |
| 1777531078 | 14.44° C | 82% | 996.5 hPa | 0 mm | - | - | - |
| 1777530148 | 14.44° C | 83% | 996.5 hPa | 0 mm | - | - | - |
| 1777529248 | 14.44° C | 83% | 996.7 hPa | 0 mm | - | - | - |
| 1777528318 | 14.44° C | 84% | 997 hPa | 0 mm | - | - | - |
| 1777527388 | 14.44° C | 83% | 996.8 hPa | 0 mm | - | - | - |
| 1777526488 | 15° C | 84% | 996.6 hPa | 0 mm | - | - | - |
| 1777525588 | 15° C | 83% | 996.4 hPa | 0 mm | - | - | - |
* Rain latest hour (hover to see other rain measurements)
** Current wind speed in m/s (hover to see current wind gust speed)